DW4461 Felixstowe UK current weather conditions

sailwx.info

Wind from 225 at 3 knots gusting 10

Air temperature 15.0° C
Dewpoint 11.6° C

Last reported at 2019-Jun-16 23:01 UTC.
Time now 2019-Jun-17 15:39 UTC

Location: N 51°57' E 001°20'.
View on Google Maps.

See reports from other nearby stations

  
Tides and Currents Weather Stations Pressure Air Temp Water Temp Dewpoint Dewpoint Depression Visibility Wind Speed Wind Dir Waves Ship Positions
date/time (UTC)wind fromknots sea level pressurealtimeterstation pressurevisibilityair tempwater tempwave heightnotes
2019-Jun-16 23:01 225 3 gusting 10 15.0
2019-Jun-16 22:56 248 5 gusting 8 15.6
2019-Jun-16 22:51 225 1 gusting 10 15.6
2019-Jun-16 22:46 248 7 gusting 7 15.6
2019-Jun-16 22:41 248 4 gusting 6 15.6
2019-Jun-16 22:36 248 15.6
2019-Jun-16 22:31 248 4 gusting 8 15.6
2019-Jun-16 22:26 225 6 gusting 11 15.6
2019-Jun-16 22:21 248 3 gusting 10 15.6
2019-Jun-16 22:16 270 6 gusting 10 15.6
2019-Jun-16 22:11 248 3 gusting 9 15.6
2019-Jun-16 22:06 225 5 gusting 6 15.6
2019-Jun-16 22:01 225 11 gusting 11 15.6
2019-Jun-16 21:56 248 3 gusting 11 15.6
2019-Jun-16 21:51 248 6 gusting 8 15.6
2019-Jun-16 21:46 248 4 gusting 12 16.1
2019-Jun-16 21:41 225 6 gusting 11 16.1
2019-Jun-16 21:36 248 5 gusting 12 16.1
2019-Jun-16 21:31 225 6 gusting 6 16.1
2019-Jun-16 21:26 248 8 gusting 9 16.1
2019-Jun-16 21:21 248 8 gusting 8 16.1
2019-Jun-16 21:16 225 8 gusting 13 16.1
2019-Jun-16 21:11 225 1 gusting 10 16.1
2019-Jun-16 21:06 248 8 gusting 12 16.1
2019-Jun-16 21:01 270 6 gusting 10 16.1
2019-Jun-16 20:56 225 5 gusting 9 16.1
2019-Jun-16 20:51 225 2 gusting 11 16.7
2019-Jun-16 20:46 248 7 gusting 8 16.7
2019-Jun-16 20:41 270 16.7
2019-Jun-16 20:36 270 6 gusting 8 16.7
2019-Jun-16 20:31 225 5 gusting 8 16.7
2019-Jun-16 20:26 203 6 gusting 7 16.7
2019-Jun-16 20:21 225 3 gusting 8 16.7
2019-Jun-16 20:16 225 6 gusting 6 16.7
2019-Jun-16 20:11 248 2 gusting 6 17.2
2019-Jun-16 20:06 225 5 gusting 7 17.2
2019-Jun-16 20:01 270 3 gusting 10 17.2
2019-Jun-16 19:56 225 6 gusting 10 17.2
2019-Jun-16 19:51 225 3 gusting 8 17.8
2019-Jun-16 19:46 248 4 gusting 11 17.8
2019-Jun-16 19:41 225 6 gusting 11 17.8
2019-Jun-16 19:36 248 7 gusting 7 17.8
2019-Jun-16 19:31 248 2 gusting 6 17.8
2019-Jun-16 19:26 270 7 gusting 7 17.8
2019-Jun-16 19:21 225 7 gusting 7 17.8
2019-Jun-16 19:16 248 6 gusting 10 17.8
2019-Jun-16 19:11 248 11 gusting 11 18.3
2019-Jun-16 19:06 248 13 gusting 14 18.3
2019-Jun-16 19:01 248 10 gusting 10 18.3
2019-Jun-16 18:56 270 2 gusting 9 18.3
2019-Jun-16 18:51 270 1 gusting 10 18.3
2019-Jun-16 18:46 270 4 gusting 9 18.3
2019-Jun-16 18:41 225 3 gusting 11 18.3
2019-Jun-16 18:36 248 8 gusting 13 18.3
2019-Jun-16 18:31 248 6 gusting 9 18.3
2019-Jun-16 18:26 248 5 gusting 8 18.3
2019-Jun-16 18:21 270 13 gusting 13 18.9
2019-Jun-16 18:16 225 7 gusting 13 18.9
2019-Jun-16 18:11 270 6 gusting 10 18.9
2019-Jun-16 18:06 248 14 gusting 14 18.9
2019-Jun-16 18:01 248 6 gusting 10 18.9
2019-Jun-16 17:56 293 3 gusting 15 18.3
2019-Jun-16 17:51 270 12 gusting 12 18.3
2019-Jun-16 17:46 225 7 gusting 15 18.3
2019-Jun-16 17:41 270 14 gusting 14 18.3
2019-Jun-16 17:36 248 13 gusting 17 18.3
2019-Jun-16 17:31 248 3 gusting 15 18.3
2019-Jun-16 17:26 203 6 gusting 14 18.3
2019-Jun-16 17:21 203 7 gusting 13 18.3
2019-Jun-16 17:16 225 4 gusting 13 18.3
2019-Jun-16 17:11 270 12 gusting 13 18.3
2019-Jun-16 17:06 225 8 gusting 13 18.3
2019-Jun-16 17:01 270 4 gusting 13 18.9
2019-Jun-16 16:56 248 6 gusting 13 18.9
2019-Jun-16 16:51 248 6 gusting 16 19.4
2019-Jun-16 16:46 293 9 gusting 12 19.4
2019-Jun-16 16:41 203 5 gusting 14 19.4
2019-Jun-16 16:36 225 10 gusting 13 19.4
2019-Jun-16 16:31 270 2 gusting 17 19.4
2019-Jun-16 16:26 203 5 gusting 15 19.4
2019-Jun-16 16:21 270 10 gusting 15 19.4
2019-Jun-16 16:16 248 10 gusting 16 19.4
2019-Jun-16 16:11 225 12 gusting 16 19.4
2019-Jun-16 16:06 248 6 gusting 17 20.0
2019-Jun-16 16:01 293 6 gusting 18 20.0
2019-Jun-16 15:56 270 8 gusting 15 20.0
2019-Jun-16 15:51 203 13 gusting 15 20.0
2019-Jun-16 15:46 203 10 gusting 16 20.0
2019-Jun-16 15:41 248 14 gusting 14 20.0
2019-Jun-16 15:36 225 5 gusting 16 20.0
2019-Jun-16 15:31 225 16 gusting 17 20.0
2019-Jun-16 15:26 225 11 gusting 17 20.0
2019-Jun-16 15:21 203 8 gusting 17 20.0
2019-Jun-16 15:16 225 18 gusting 18 19.4
2019-Jun-16 15:11 248 6 gusting 14 19.4
2019-Jun-16 15:06 270 8 gusting 13 19.4
2019-Jun-16 15:01 248 9 gusting 14 19.4
2019-Jun-16 14:56 225 14 gusting 19 19.4
2019-Jun-16 14:51 248 11 gusting 13 19.4
2019-Jun-16 14:46 248 6 gusting 15 19.4
2019-Jun-16 14:41 248 8 gusting 13 19.4
2019-Jun-16 14:36 248 4 gusting 14 19.4
2019-Jun-16 14:31 180 9 gusting 14 19.4
2019-Jun-16 14:26 248 6 gusting 17 19.4
2019-Jun-16 14:21 270 1 gusting 11 19.4
2019-Jun-16 14:16 248 8 gusting 18 19.4
2019-Jun-16 14:11 270 8 gusting 16 19.4
2019-Jun-16 14:06 248 10 gusting 13 19.4
2019-Jun-16 14:01 248 10 gusting 18 19.4
2019-Jun-16 13:56 270 3 gusting 14 19.4
2019-Jun-16 13:51 225 5 gusting 15 19.4
2019-Jun-16 13:46 225 8 gusting 16 19.4
2019-Jun-16 13:41 225 6 gusting 14 18.9
2019-Jun-16 13:36 248 6 gusting 16 19.4
2019-Jun-16 13:31 270 6 gusting 15 19.4
2019-Jun-16 13:26 248 13 gusting 15 19.4
2019-Jun-16 13:21 248 15 gusting 15 19.4
2019-Jun-16 13:16 203 7 gusting 15 19.4
2019-Jun-16 13:11 248 14 gusting 14 18.9
2019-Jun-16 13:06 248 4 gusting 16 18.9
2019-Jun-16 13:01 248 6 gusting 18 18.9
2019-Jun-16 12:56 225 8 gusting 14 18.9
2019-Jun-16 12:51 225 8 gusting 15 18.9
2019-Jun-16 12:46 270 14 gusting 16 18.9
2019-Jun-16 12:41 225 12 gusting 12 18.3
2019-Jun-16 12:36 270 5 gusting 12 18.3
2019-Jun-16 12:31 270 14 gusting 14 18.3
2019-Jun-16 12:26 270 5 gusting 12 18.3
2019-Jun-16 12:21 225 2 gusting 13 17.8
2019-Jun-16 12:16 293 6 gusting 16 17.8
2019-Jun-16 12:11 248 4 gusting 15 17.8
2019-Jun-16 12:06 225 3 gusting 13 17.8
2019-Jun-16 12:01 180 5 gusting 13 17.8
2019-Jun-16 11:56 225 9 gusting 13 18.3
2019-Jun-16 11:51 180 5 gusting 13 17.8
2019-Jun-16 11:46 180 9 gusting 13 18.3
2019-Jun-16 11:41 180 0 gusting 12 18.3
2019-Jun-16 11:36 248 8 gusting 15 17.8
2019-Jun-16 11:31 225 8 gusting 14 17.8
2019-Jun-16 11:26 225 8 gusting 13 18.3
2019-Jun-16 11:21 225 8 gusting 12 18.3
2019-Jun-16 11:16 203 8 gusting 13 17.8
2019-Jun-16 11:11 203 10 gusting 10 17.8
2019-Jun-16 10:51 225 7 gusting 10 16.7
2019-Jun-16 10:46 248 3 gusting 13 16.7
2019-Jun-16 10:41 225 7 gusting 13 17.2
2019-Jun-16 10:36 203 7 gusting 10 17.2
2019-Jun-16 10:31 225 1 gusting 10 17.2
2019-Jun-16 10:26 203 9 gusting 11 17.8
2019-Jun-16 10:21 203 7 gusting 13 17.8
2019-Jun-16 10:16 203 13 gusting 13 17.8
2019-Jun-16 10:11 203 6 gusting 13 17.8
2019-Jun-16 10:06 248 6 gusting 13 17.2
2019-Jun-16 10:01 225 13 gusting 13 17.8
2019-Jun-16 09:56 203 9 gusting 10 17.8
2019-Jun-16 09:51 248 6 gusting 11 17.2
2019-Jun-16 09:46 248 5 gusting 9 17.2
2019-Jun-16 09:41 270 5 gusting 13 17.2
2019-Jun-16 09:36 203 11 gusting 12 17.2
2019-Jun-16 09:31 180 4 gusting 13 17.2
2019-Jun-16 09:26 248 12 gusting 12 16.7
2019-Jun-16 09:21 248 6 gusting 9 16.7
2019-Jun-16 09:16 203 8 gusting 13 16.7
2019-Jun-16 09:11 225 2 gusting 10 16.7
2019-Jun-16 09:06 270 3 gusting 12 16.7
2019-Jun-16 09:01 225 10 gusting 10 16.7
2019-Jun-16 08:56 248 11 gusting 12 16.1
2019-Jun-16 08:51 248 6 gusting 12 16.1
2019-Jun-16 08:46 225 6 gusting 10 16.1
2019-Jun-16 08:41 248 3 gusting 15 16.1
2019-Jun-16 08:36 248 5 gusting 11 16.1
2019-Jun-16 08:31 248 7 gusting 12 16.1
2019-Jun-16 08:26 203 2 gusting 9 16.1
2019-Jun-16 08:21 225 6 gusting 10 16.1
2019-Jun-16 08:16 270 9 gusting 11 15.6
2019-Jun-16 08:11 225 13 gusting 13 15.6
2019-Jun-16 08:06 225 3 gusting 13 15.6
2019-Jun-16 08:01 248 3 gusting 8 15.6
2019-Jun-16 07:56 225 6 gusting 8 15.6
2019-Jun-16 07:51 270 3 gusting 9 15.6
2019-Jun-16 07:46 225 5 gusting 9 15.0
2019-Jun-16 07:41 293 5 gusting 6 15.6
2019-Jun-16 07:36 248 6 gusting 9 15.6
2019-Jun-16 07:31 158 5 gusting 8 15.6
2019-Jun-16 07:26 248 7 gusting 9 15.6
2019-Jun-16 07:21 225 4 gusting 11 15.0
2019-Jun-16 07:16 225 3 gusting 8 15.0
2019-Jun-16 07:11 248 2 gusting 9 15.0
2019-Jun-16 07:06 270 5 gusting 6 14.4
2019-Jun-16 07:01 248 3 gusting 13 14.4
2019-Jun-16 06:56 293 4 gusting 9 14.4
2019-Jun-16 06:51 225 6 gusting 9 14.4
2019-Jun-16 06:46 248 4 gusting 8 13.9
2019-Jun-16 06:41 248 0 gusting 9 13.9
2019-Jun-16 06:36 248 1 gusting 9 13.9
2019-Jun-16 06:31 225 2 gusting 8 13.3
2019-Jun-16 06:26 248 4 gusting 8 13.3
2019-Jun-16 06:21 225 1 gusting 5 13.3
2019-Jun-16 06:16 248 4 gusting 6 12.8
2019-Jun-16 06:11 248 3 gusting 6 12.8
2019-Jun-16 06:06 248 3 gusting 6 12.8
2019-Jun-16 06:01 248 12.8
2019-Jun-16 05:56 270 12.2
2019-Jun-16 05:51 248 7 gusting 7 12.2
2019-Jun-16 05:46 248 1 gusting 6 12.2
2019-Jun-16 05:41 248 12.2
2019-Jun-16 05:36 248 1 gusting 6 12.2
2019-Jun-16 05:31 225 2 gusting 6 12.2
2019-Jun-16 05:26 248 12.2
2019-Jun-16 05:21 270 0 gusting 6 11.7
2019-Jun-16 05:16 225 4 gusting 6 11.7
2019-Jun-16 05:11 270 1 gusting 6 11.7
2019-Jun-16 05:06 248 2 gusting 5 11.7
2019-Jun-16 05:01 225 5 gusting 7 11.7
2019-Jun-16 04:56 270 3 gusting 4 11.7
2019-Jun-16 04:51 270 2 gusting 7 11.7
2019-Jun-16 04:46 248 3 gusting 8 11.7
2019-Jun-16 04:41 270 3 gusting 9 11.7
2019-Jun-16 04:36 270 0 gusting 5 11.7
2019-Jun-16 04:31 248 2 gusting 4 11.7
2019-Jun-16 04:26 248 6 gusting 6 11.7
2019-Jun-16 04:21 248 5 gusting 7 11.7
2019-Jun-16 04:16 270 0 gusting 3 11.7
2019-Jun-16 04:11 248 11.7
2019-Jun-16 04:06 270 11.7
2019-Jun-16 04:01 270 11.7
2019-Jun-16 03:56 248 3 gusting 7 11.7
2019-Jun-16 03:51 270 2 gusting 6 11.7
2019-Jun-16 03:46 270 1 gusting 6 11.7
2019-Jun-16 03:41 270 11.7
2019-Jun-16 03:36 248 11.7
2019-Jun-16 03:31 225 12.2
2019-Jun-16 03:26 248 1 gusting 5 12.2
2019-Jun-16 03:21 248 2 gusting 7 12.2
2019-Jun-16 03:16 270 12.2
2019-Jun-16 03:11 248 3 gusting 6 12.2
2019-Jun-16 03:06 270 2 gusting 3 12.2
2019-Jun-16 03:01 270 12.2
2019-Jun-16 02:56 248 12.2
2019-Jun-16 02:51 270 1 gusting 6 12.2
2019-Jun-16 02:46 248 5 gusting 6 12.2
2019-Jun-16 02:41 248 12.2
2019-Jun-16 02:36 293 0 gusting 6 12.2
2019-Jun-16 02:31 293 1 gusting 5 12.2
2019-Jun-16 02:26 248 12.8
2019-Jun-16 02:21 248 0 gusting 5 12.8
2019-Jun-16 02:16 248 3 gusting 6 12.8
2019-Jun-16 02:11 248 12.8
2019-Jun-16 02:06 270 0 gusting 5 12.8
2019-Jun-16 02:01 248 5 gusting 8 12.8
2019-Jun-16 01:56 270 2 gusting 5 12.8
2019-Jun-16 01:51 270 3 gusting 8 12.8
2019-Jun-16 01:46 248 12.8
2019-Jun-16 01:41 270 5 gusting 5 12.8
2019-Jun-16 01:36 270 3 gusting 6 12.8
2019-Jun-16 01:31 270 0 gusting 5 13.3
2019-Jun-16 01:26 248 2 gusting 9 13.3
2019-Jun-16 01:21 225 0 gusting 8 13.3
2019-Jun-16 01:16 270 5 gusting 6 13.3
2019-Jun-16 01:11 293 4 gusting 9 13.3
2019-Jun-16 01:06 293 1 gusting 6 13.3
2019-Jun-16 01:01 248 3 gusting 6 13.3
2019-Jun-16 00:56 270 1 gusting 8 13.3
2019-Jun-16 00:51 270 13.3
2019-Jun-16 00:46 248 2 gusting 9 13.3
2019-Jun-16 00:41 270 13.3
2019-Jun-16 00:36 248 6 gusting 6 13.3
2019-Jun-16 00:31 225 4 gusting 10 13.3
2019-Jun-16 00:26 225 6 gusting 6 13.3
2019-Jun-16 00:21 225 2 gusting 6 13.3
2019-Jun-16 00:16 225 3 gusting 5 13.9
2019-Jun-16 00:11 270 1 gusting 4 13.9
2019-Jun-16 00:06 270 13.9
2019-Jun-16 00:01 248 3 gusting 5 13.9
2019-Jun-15 23:56 270 2 gusting 6 13.9
2019-Jun-15 23:51 270 1 gusting 5 13.9
2019-Jun-15 23:46 248 2 gusting 9 13.9
2019-Jun-15 23:41 248 8 gusting 8 13.9
2019-Jun-15 23:36 248 4 gusting 8 13.9
2019-Jun-15 23:31 248 2 gusting 5 13.9
2019-Jun-15 23:26 248 4 gusting 6 13.9
2019-Jun-15 23:21 248 1 gusting 5 13.9
2019-Jun-15 23:16 248 13.9
2019-Jun-15 23:11 248 1 gusting 6 13.9
2019-Jun-15 23:06 225 5 gusting 6 13.9
2019-Jun-15 23:01 225 1 gusting 12 13.9
2019-Jun-15 22:56 270 3 gusting 8 14.4
2019-Jun-15 22:51 248 2 gusting 7 14.4
2019-Jun-15 22:46 248 2 gusting 7 14.4
2019-Jun-15 22:41 270 0 gusting 8 14.4
2019-Jun-15 22:36 225 7 gusting 7 14.4
2019-Jun-15 22:31 225 5 gusting 8 14.4
2019-Jun-15 22:26 248 7 gusting 7 14.4
2019-Jun-15 22:21 225 2 gusting 6 14.4
2019-Jun-15 22:16 270 1 gusting 8 14.4
2019-Jun-15 22:11 225 14.4
2019-Jun-15 22:06 248 5 gusting 10 14.4
2019-Jun-15 22:01 270 6 gusting 8 14.4
2019-Jun-15 21:56 248 12 gusting 12 14.4
2019-Jun-15 21:51 248 8 gusting 10 14.4
2019-Jun-15 21:46 248 1 gusting 8 14.4
2019-Jun-15 21:36 270 0 gusting 12 15.0
2019-Jun-15 21:31 248 5 gusting 7 14.4
2019-Jun-15 21:26 248 6 gusting 7 14.4
2019-Jun-15 21:21 248 8 gusting 10 14.4
2019-Jun-15 21:16 248 5 gusting 12 14.4
2019-Jun-15 21:11 248 0 gusting 11 15.0
2019-Jun-15 21:06 248 4 gusting 10 15.0
2019-Jun-15 21:01 248 2 gusting 12 15.0
2019-Jun-15 20:56 248 4 gusting 10 15.0
2019-Jun-15 20:51 225 6 gusting 13 15.0
2019-Jun-15 20:46 225 6 gusting 12 15.6
2019-Jun-15 20:41 315 2 gusting 13 15.6
2019-Jun-15 20:36 270 2 gusting 13 15.6
2019-Jun-15 20:31 248 9 gusting 14 15.6
2019-Jun-15 20:26 248 13 gusting 13 15.6
2019-Jun-15 20:21 225 4 gusting 10 15.6
2019-Jun-15 20:16 248 8 gusting 11 15.6
2019-Jun-15 20:11 270 4 gusting 11 15.6
2019-Jun-15 20:06 248 12 gusting 14 15.6
2019-Jun-15 20:01 225 11 gusting 12 15.6
2019-Jun-15 19:56 248 4 gusting 11 15.6
2019-Jun-15 19:51 248 13 gusting 13 15.6
2019-Jun-15 19:46 180 1 gusting 13 16.1
2019-Jun-15 19:41 248 7 gusting 10 16.1
2019-Jun-15 19:36 270 3 gusting 9 16.1
2019-Jun-15 19:31 248 6 gusting 6 16.1
2019-Jun-15 19:26 203 3 gusting 8 16.1
2019-Jun-15 19:21 248 1 gusting 10 16.7
2019-Jun-15 19:16 248 12 gusting 12 16.7
2019-Jun-15 19:11 248 5 gusting 8 16.7
2019-Jun-15 19:06 248 10 gusting 15 16.7
2019-Jun-15 19:01 248 15 gusting 15 16.7
2019-Jun-15 18:56 248 9 gusting 15 16.7
2019-Jun-15 18:51 248 3 gusting 10 17.2
2019-Jun-15 18:46 315 2 gusting 10 17.2
2019-Jun-15 18:41 248 6 gusting 12 17.2
2019-Jun-15 18:36 248 9 gusting 12 17.2
2019-Jun-15 18:31 248 4 gusting 11 17.8
2019-Jun-15 18:26 203 10 gusting 11 17.8
2019-Jun-15 18:21 225 5 gusting 13 17.8
2019-Jun-15 18:16 248 12 gusting 16 17.8
2019-Jun-15 18:11 248 6 gusting 14 17.8
2019-Jun-15 18:06 248 4 gusting 13 17.8
2019-Jun-15 18:01 203 8 gusting 13 17.8
2019-Jun-15 17:56 248 5 gusting 14 17.8
2019-Jun-15 17:51 225 4 gusting 11 18.3
2019-Jun-15 17:46 180 9 gusting 14 18.3
2019-Jun-15 17:41 180 2 gusting 10 18.3
2019-Jun-15 17:36 248 8 gusting 8 18.3
2019-Jun-15 17:27 248 6 gusting 8 17.8
2019-Jun-15 17:22 248 3 gusting 12 18.3
2019-Jun-15 17:17 225 12 gusting 13 18.3
2019-Jun-15 17:12 225 12 gusting 12 18.3
2019-Jun-15 17:07 225 9 gusting 11 18.3
2019-Jun-15 17:02 225 8 gusting 13 18.3
2019-Jun-15 16:57 248 4 gusting 13 18.3
2019-Jun-15 16:52 270 13 gusting 20 18.9
2019-Jun-15 16:47 225 10 gusting 13 18.9
2019-Jun-15 16:42 248 5 gusting 12 18.9
2019-Jun-15 16:37 248 8 gusting 12 18.9
2019-Jun-15 16:32 248 11 gusting 12 18.9
2019-Jun-15 16:27 248 10 gusting 12 18.9
2019-Jun-15 16:22 203 2 gusting 13 18.9
2019-Jun-15 16:17 225 4 gusting 11 18.9
2019-Jun-15 16:12 248 7 gusting 16 18.9
2019-Jun-15 16:07 248 4 gusting 9 18.9
2019-Jun-15 16:02 203 13 gusting 13 18.9
2019-Jun-15 15:57 248 5 gusting 13 18.9
2019-Jun-15 15:52 180 10 gusting 10 18.9
2019-Jun-15 15:47 158 4 gusting 13 18.9
2019-Jun-15 15:42 248 6 gusting 14 19.4
2019-Jun-15 15:37 203 16 gusting 16 19.4
2019-Jun-15 15:32 203 3 gusting 14 19.4
2019-Jun-15 15:27 270 13 gusting 13 20.0
2019-Jun-15 15:22 248 8 gusting 14 20.0
2019-Jun-15 15:17 203 8 gusting 11 20.0
2019-Jun-15 15:12 248 6 gusting 12 20.0
2019-Jun-15 15:07 248 6 gusting 12 20.0
2019-Jun-15 15:02 225 6 gusting 13 20.0